Wind_Speed
37 36 33 28 22 17 16 12 9 7 7 8 10 12 14 17 18 18 18 16 16 16 15 13 10 11 16 16 12 15 13 9 6 5 13 13 10 11 9 8 5 5 6
33 32 28 24 20 17 10 7 5 6 4 2 3 7 10 18 21 21 19 18 16 16 16 14 12 11 13 15 19 18 18 18 10 10 14 15 14 12 11 9 7 6 5
22 23 20 18 16 16 16 14 10 6 2 3 5 7 16 23 26 30 33 23 18 14 15 14 13 12 13 14 18 22 21 19 17 13 13 15 15 13 11 12 10 8 7
27 25 26 27 26 23 18 13 5 2 3 4 2 4 10 18 20 26 50 34 14 9 14 11 13 14 14 15 17 20 21 22 21 19 13 14 18 14 14 16 14 14 10
32 30 28 28 20 13 13 17 7 4 1 6 5 9 8 0 13 6 18 25 21 19 14 13 14 15 15 16 20 23 22 26 25 23 18 13 16 13 21 20 19 14 12
32 27 19 14 9 8 10 6 6 9 5 6 8 9 13 15 14 17 20 21 18 21 25 22 19 19 17 16 17 21 24 28 31 22 18 16 26 25 26 24 20 12 4
22 15 7 11 10 9 7 9 7 5 7 7 10 12 14 15 16 20 21 19 21 24 28 26 25 22 18 20 23 22 24 25 30 30 25 31 26 30 29 24 24 18 12
12 8 8 9 10 11 11 11 11 10 11 12 13 15 16 17 18 21 25 29 28 28 25 23 24 24 21 23 22 22 24 25 26 31 29 28 27 24 28 32 28 24 15
9 8 8 9 11 13 15 16 15 17 18 21 22 20 19 20 20 22 22 25 26 27 25 23 21 20 21 16 17 21 24 28 29 25 26 25 23 19 21 30 22 19 6
8 7 8 9 10 12 14 15 19 20 20 21 22 20 19 21 21 21 25 28 26 26 27 26 22 19 18 18 20 19 17 24 25 26 24 24 21 18 22 28 29 25 11
5 7 10 12 13 15 17 18 18 19 20 21 23 23 22 20 22 22 12 12 19 23 23 23 23 17 16 18 19 22 23 21 22 22 23 21 22 21 25 28 27 26 24
6 9 11 14 16 17 18 19 20 19 20 20 17 18 16 22 24 16 24 20 22 21 21 21 18 13 15 14 13 18 18 19 16 19 18 23 24 26 30 28 24 22 21
5 6 8 11 15 17 19 19 19 21 18 17 23 23 24 27 24 27 28 25 23 22 21 18 18 14 13 15 19 19 20 17 14 18 20 24 28 28 31 28 23 21 19
6 7 9 12 14 16 17 15 17 19 19 18 22 25 28 26 27 24 26 28 28 28 24 22 19 18 22 26 26 23 22 19 13 16 22 25 23 26 29 32 28 26 21
8 9 11 13 14 18 19 18 18 19 21 20 24 25 27 23 28 26 28 25 25 25 23 21 20 22 20 20 23 27 26 24 20 16 17 20 21 29 29 30 30 26 22
8 10 12 14 16 18 19 20 20 18 18 21 24 25 28 26 26 23 23 24 24 25 21 19 17 20 23 24 25 25 28 30 31 19 17 19 24 27 27 27 26 26 23
12 14 15 15 17 18 21 22 19 25 23 22 18 17 22 21 22 23 20 25 21 20 17 21 20 22 25 27 27 25 25 29 32 23 19 22 20 23 26 22 23 22 21
10 13 15 14 14 16 17 18 17 15 18 24 21 21 21 21 19 21 23 23 20 21 22 26 28 27 25 24 27 28 26 26 29 25 24 21 23 23 21 25 26 25 23
10 14 13 13 16 18 19 19 18 18 18 19 24 26 23 21 22 22 21 22 24 26 27 26 27 28 27 27 28 28 28 27 25 25 25 21 22 23 25 24 28 29 26
12 14 14 14 18 18 19 17 18 18 15 16 17 20 21 26 21 20 19 21 24 25 28 28 28 27 28 29 28 27 25 23 20 24 25 26 25 24 23 22 23 27 29
16 16 16 15 18 20 18 17 18 17 14 14 17 23 24 21 24 22 22 22 23 24 26 27 27 29 30 31 29 26 25 25 23 19 19 24 25 22 24 27 26 33 33
19 19 17 16 18 20 20 20 19 17 18 19 24 26 24 21 19 21 23 26 26 27 29 29 28 29 31 30 29 25 26 26 20 16 13 13 22 25 23 19 19 25 34
20 20 18 18 17 19 19 18 19 19 21 22 23 20 21 20 21 21 25 25 26 29 31 28 29 28 28 27 24 24 20 20 17 15 16 14 18 23 23 19 17 9 15
21 20 18 16 16 17 18 19 20 17 19 19 21 21 20 22 23 24 24 25 27 25 23 23 23 19 18 19 17 17 20 22 23 22 19 19 21 23 22 19 17 18 12
18 20 19 19 16 17 17 20 19 18 20 19 20 20 20 21 22 23 23 23 23 23 24 23 21 21 20 21 22 23 22 24 27 26 26 25 27 22 23 21 23 28 28
20 21 22 23 21 19 19 22 18 17 17 18 19 19 19 20 22 22 21 20 20 22 21 20 20 19 19 20 19 17 18 19 22 24 25 26 30 23 23 22 24 26 28
Wind_Direction
218 216 217 213 212 216 220 225 257 281 294 307 317 320 306 299 293 283 276 267 259 257 255 252 258 258 249 249 238 237 252 228 223 252 224 217 211 205 214 241 259 294 323
209 211 210 207 203 205 197 183 153 126 105 71 323 321 327 348 316 292 284 278 271 269 273 268 257 254 250 244 238 240 255 266 228 217 215 211 219 222 230 232 235 258 297
191 193 185 167 153 132 132 119 114 111 72 352 310 15 23 19 16 357 326 279 267 267 269 270 276 271 262 250 242 243 252 255 241 219 212 211 221 217 219 224 225 235 254
159 143 135 128 123 120 109 94 81 44 326 348 333 334 358 9 11 352 317 326 302 276 282 281 285 279 273 269 257 252 252 242 233 227 215 203 213 221 215 222 221 228 237
116 117 108 109 95 91 105 89 14 294 194 354 19 332 307 176 28 4 298 317 331 344 335 314 298 287 281 277 273 267 253 237 231 227 222 206 205 203 210 219 229 228 234
105 100 112 92 124 301 316 73 303 278 342 37 353 356 340 352 343 320 307 306 318 321 328 319 313 306 294 285 281 278 271 246 234 218 218 216 218 216 225 218 220 208 231
114 121 94 64 49 44 48 57 75 10 357 355 333 342 342 334 320 313 317 320 312 307 311 306 309 307 300 299 294 287 279 267 258 252 231 232 231 229 226 218 215 216 208
112 98 58 42 25 13 21 21 9 355 358 358 3 358 348 330 322 309 304 305 304 303 306 299 299 302 297 303 302 303 286 269 254 254 257 261 254 248 236 234 218 216 220
71 68 51 27 13 3 359 356 356 356 353 347 346 340 332 327 324 318 316 314 312 309 308 305 300 297 297 301 303 307 300 289 266 256 252 253 249 243 238 223 203 200 194
72 46 24 11 7 357 349 347 340 343 344 342 337 337 336 331 332 331 331 328 325 324 321 314 307 289 284 297 306 314 302 292 291 267 253 244 241 235 231 224 203 185 172
16 3 359 355 352 346 338 336 336 337 334 333 331 332 332 337 342 337 342 360 350 353 346 318 315 300 273 293 298 300 298 305 288 284 262 247 236 223 212 212 213 212 197
353 360 349 343 342 339 335 333 332 333 331 332 336 337 335 331 330 335 327 330 331 340 347 348 334 310 284 283 308 320 310 290 285 270 260 244 228 217 213 214 213 218 226
352 345 342 337 338 336 337 335 328 324 320 322 324 324 322 320 318 316 320 316 320 325 322 317 320 316 310 309 312 307 312 313 296 268 256 250 235 229 219 214 208 210 213
23 5 353 347 341 329 324 329 326 321 312 310 313 311 311 313 319 318 321 314 312 313 319 315 300 290 291 287 290 288 294 301 291 271 263 266 244 230 224 215 209 209 212
351 343 339 334 330 319 313 314 315 311 305 302 306 304 307 302 311 316 322 315 308 305 307 309 299 282 280 281 284 285 284 286 286 275 272 253 233 233 225 222 219 211 205
344 345 343 337 335 328 324 321 317 312 305 302 297 295 301 302 306 310 311 316 314 303 299 294 298 286 279 280 279 279 277 280 282 272 277 259 227 222 223 227 218 207 200
346 335 327 322 323 325 321 316 305 318 316 317 313 306 310 304 311 312 306 310 304 306 296 299 293 284 277 276 273 273 277 281 283 270 263 257 248 228 216 217 209 201 199
333 324 315 313 316 314 314 308 296 298 307 313 324 318 315 314 314 307 307 307 298 300 294 293 289 287 287 277 273 271 275 280 276 260 253 260 256 241 226 218 212 202 200
333 338 341 326 320 319 314 307 292 290 293 293 313 324 330 324 317 312 310 304 300 297 296 289 291 287 284 285 280 277 280 278 269 260 254 255 261 244 235 222 200 203 203
307 329 321 310 324 325 323 310 306 289 296 308 313 314 323 322 315 312 309 305 297 292 295 292 291 284 283 283 284 284 286 284 286 275 269 265 252 255 244 234 209 207 201
286 313 318 307 314 327 322 318 315 312 315 314 311 317 321 311 309 309 309 307 304 299 292 291 289 289 291 289 288 284 279 277 277 280 277 264 263 253 249 240 224 210 204
282 303 307 306 314 321 322 314 311 307 308 310 320 320 320 313 309 308 306 306 303 301 299 294 290 286 289 289 284 278 274 271 261 268 277 272 272 267 255 252 248 230 205
288 295 301 306 308 316 317 322 320 314 311 314 318 314 314 312 306 305 306 305 309 310 307 297 294 285 287 292 288 281 267 276 281 281 289 290 276 266 257 232 231 269 223
278 284 295 298 311 316 316 316 319 320 326 321 316 312 311 311 306 307 308 309 311 311 317 315 321 310 307 301 293 279 277 275 276 275 274 271 271 271 264 252 231 220 223
272 287 285 279 296 307 307 306 307 318 326 321 313 316 321 323 319 317 320 318 316 315 315 314 312 308 302 296 293 291 289 281 277 275 269 263 258 256 252 242 214 216 210
292 290 287 286 281 291 297 301 290 305 320 319 315 320 323 326 328 329 331 329 324 320 322 325 323 316 310 304 304 301 301 296 291 282 273 263 252 244 242 231 225 211 213
Height
776 779 783 787 791 794 796 798 801 802 803 804 804 806 807 807 805 804 803 802 801 802 801 800 801 800 800 799 796 794 793 793 793 793 795 797 796 797 796 796 795 795 794
771 776 780 785 788 791 794 795 795 795 796 798 799 800 800 802 801 803 800 799 796 795 797 794 793 794 794 794 793 791 789 787 786 788 792 792 792 794 794 793 792 792 793
771 775 780 783 788 790 791 793 793 793 793 793 793 794 794 796 796 802 805 796 792 789 787 789 790 792 791 789 788 788 786 784 783 784 785 787 789 789 791 791 789 789 791
768 777 782 787 789 790 791 793 796 793 792 790 787 785 785 789 794 789 793 787 785 782 782 785 787 787 786 786 784 783 781 781 781 781 781 782 784 785 786 788 786 786 787
773 779 784 785 792 796 793 786 801 799 788 787 785 782 776 775 783 799 806 802 792 784 783 785 783 783 782 780 780 778 776 776 776 776 776 777 778 779 778 782 783 783 784
779 786 784 782 787 800 796 782 794 799 793 785 788 782 777 766 782 795 802 795 786 786 785 782 782 778 776 775 774 773 771 770 768 769 769 769 768 769 772 776 780 781 782
780 787 789 786 795 798 794 791 791 794 791 788 789 783 779 777 778 784 786 782 781 783 782 781 778 774 771 769 768 766 764 761 761 761 761 759 761 762 767 769 773 774 774
788 789 787 787 790 792 790 790 791 794 791 790 786 782 779 782 783 785 784 782 779 778 776 775 772 768 767 764 762 761 758 756 756 756 755 755 756 759 761 761 765 768 772
789 792 792 789 787 787 787 786 786 784 783 781 778 780 783 781 781 781 780 776 774 772 770 767 765 762 761 759 758 756 753 750 750 750 750 751 753 754 756 758 761 765 768
793 794 794 793 791 789 787 786 783 780 778 777 778 778 777 777 777 775 773 771 768 765 761 759 759 758 757 756 754 752 748 746 745 745 746 746 748 749 750 750 753 758 762
797 794 794 793 790 787 785 784 781 779 778 777 776 775 775 775 773 771 770 768 765 762 758 754 752 752 751 752 750 748 744 743 741 740 741 741 743 744 746 747 749 753 756
797 792 793 792 789 786 784 783 781 778 776 775 774 773 773 772 770 769 767 765 762 759 755 752 749 746 748 747 746 743 741 739 737 736 737 737 737 739 741 743 747 750 753
795 794 793 792 789 787 784 782 779 778 776 773 772 770 768 768 767 764 762 760 757 754 751 750 747 746 745 743 742 740 738 736 734 733 732 733 734 734 738 740 744 748 751
796 794 791 789 788 788 786 783 781 778 776 774 771 769 765 763 761 759 757 753 751 748 745 743 742 742 741 740 737 736 735 732 732 730 728 728 728 732 733 735 739 743 746
796 794 791 790 788 788 785 782 779 776 774 770 768 765 762 759 756 755 752 749 746 744 740 738 736 735 733 732 732 730 728 728 726 726 726 723 723 727 727 730 733 738 741
796 792 790 788 786 785 781 777 774 772 769 767 765 762 759 756 754 751 748 745 742 739 735 733 731 730 729 728 726 724 723 722 721 722 723 721 719 721 722 724 727 730 734
792 790 788 785 783 781 777 774 770 765 764 761 758 756 755 753 750 747 744 741 738 735 732 729 727 725 722 720 719 718 717 716 715 715 715 716 715 714 715 718 720 724 727
789 787 785 782 780 777 774 771 768 764 761 755 753 752 750 748 746 743 740 737 734 731 728 724 721 718 716 714 712 711 710 708 708 708 708 709 708 708 707 709 712 714 718
786 783 781 779 777 774 770 767 763 759 756 753 749 745 745 744 741 737 734 731 728 725 721 718 714 712 710 707 705 703 702 701 700 700 700 700 701 699 699 697 696 704 710
782 779 777 775 772 769 765 762 757 754 752 750 747 745 741 738 734 731 728 725 721 717 713 710 707 705 702 699 697 696 695 694 693 692 692 692 692 693 691 689 691 695 699
778 775 773 771 768 764 760 757 755 752 749 747 744 740 738 734 729 724 721 718 715 711 707 704 701 697 694 691 689 688 687 685 685 683 682 684 684 684 685 686 684 686 690
775 772 768 765 763 760 757 754 751 748 745 742 738 734 731 728 724 721 717 713 709 705 701 697 693 689 686 683 681 680 679 677 677 677 675 674 677 676 675 676 679 674 680
769 767 764 761 759 757 753 751 748 745 742 739 735 730 727 723 720 716 712 707 702 698 692 688 684 680 678 675 674 674 673 673 673 672 671 669 670 670 669 672 676 669 665
764 763 760 757 755 753 751 748 745 742 739 736 732 727 724 719 715 710 706 701 697 692 687 683 678 676 673 671 669 668 667 667 667 666 665 665 665 665 664 664 665 669 668
760 757 755 753 751 748 745 742 741 739 736 732 728 724 719 715 711 706 701 696 692 687 683 679 675 671 669 666 664 661 660 658 656 656 656 656 656 658 659 658 660 664 666
754 752 750 748 746 743 741 739 736 734 731 728 724 720 716 712 708 702 696 692 687 683 679 675 670 666 663 660 657 655 653 651 649 648 647 646 647 649 650 651 653 656 660